|
|
Asteroid 2012 AY
(Preview)
Orbital elements:
2012 AY Earth MOID = 0.0910 AU
Epoch 2012 Mar. 14.0 TT = JDT 2456000.5 MPC
M 351.58890 (2000.0) P Q
n 0.72164931 Peri. 261.26080 -0.90772324 +0.26663144
a 1.2309826 Node 293.66903 -0.07377910 -0.86151507
e 0.2690662 Incl. 20.71428 -0.41303166 -0.43208733
P 1.37 H 22.1 G...
|
Blobrana
|
0
|
|
|
|
|
Asteroid 2012 AX
(Preview)
Orbital elements:
2012 AX Earth MOID = 0.0717 AU
Epoch 2012 Mar. 14.0 TT = JDT 2456000.5 MPC
M 13.74413 (2000.0) P Q
n 0.33430959 Peri. 42.24111 -0.68104577 -0.72166524
a 2.0560649 Node 91.09170 +0.63428438 -0.66603088
e 0.5057079 Incl. 7.12430 +0.36586879 -0.18868533
P 2.95 H 23.5 G 0.15...
|
Blobrana
|
0
|
|
|
|
|
Asteroid 2012 AZ
(Preview)
Orbital elements:
2012 AZ Earth MOID = 0.0334 AU
Epoch 2012 Mar. 14.0 TT = JDT 2456000.5 MPC
M 6.72706 (2000.0) P Q
n 0.63680152 Peri. 264.10685 -0.99455420 +0.01639486
a 1.3380325 Node 276.80108 +0.02705666 -0.91307349
e 0.3786464 Incl. 5.94953 -0.10064733 -0.40746534
P 1.55 H 25.8 G 0.1...
|
Blobrana
|
0
|
|
|
|
|
Asteroid 2011 YC63
(Preview)
Orbital elements:
2011 YC63 Earth MOID = 0.0014 AU
Epoch 2012 Mar. 14.0 TT = JDT 2456000.5 MPC
M 64.70387 (2000.0) P Q
n 0.51959307 Peri. 269.97821 +0.97332973 -0.14379693
a 1.5323588 Node 98.28905 +0.20160295 +0.90797420
e 0.5962649 Incl. 10.40689 -0.10947822 +0.39358010
P 1.90 H 29.0 G...
|
Blobrana
|
0
|
|
|
|
|
Asteroid 2011 YA63
(Preview)
Orbital elements:
2011 YA63 Earth MOID = 0.0961 AU
Epoch 2012 Mar. 14.0 TT = JDT 2456000.5 MPC
M 55.61096 (2000.0) P Q
n 0.56995994 Peri. 222.02695 +0.21396174 -0.97675216
a 1.4406987 Node 215.62434 +0.90218449 +0.20279223
e 0.2508636 Incl. 1.30358 +0.37454442 +0.06950198
P 1.73 H 24.5 G...
|
Blobrana
|
0
|
|
|
|
|
Asteroid 2011 YZ62
(Preview)
Orbital elements:
2011 YZ62 Earth MOID = 0.0638 AU
Epoch 2012 Mar. 14.0 TT = JDT 2456000.5 MPC
M 31.38843 (2000.0) P Q
n 0.36801505 Peri. 64.46993 +0.06397647 -0.99788674
a 1.9285267 Node 21.87096 +0.90430788 +0.05315489
e 0.4602428 Incl. 1.74761 +0.42205956 +0.03737125
P 2.68 H 25.7 G 0....
|
Blobrana
|
0
|
|
|
|
|
Asteroid 2011 YY62
(Preview)
Orbital elements:
2011 YY62 Earth MOID = 0.0035 AU
Epoch 2012 Mar. 14.0 TT = JDT 2456000.5 MPC
M 30.70135 (2000.0) P Q
n 0.25367329 Peri. 127.19899 +0.84283468 -0.53028333
a 2.4714560 Node 264.99900 +0.45994724 +0.79834243
e 0.6596075 Incl. 5.28800 +0.27942483 +0.28539262
P 3.89 H 22.8 G...
|
Blobrana
|
0
|
|
|
|
|
Asteroid 2011 YW62
(Preview)
Orbital elements:
2011 YW62 Earth MOID = 0.2060 AU
Epoch 2012 Mar. 14.0 TT = JDT 2456000.5 MPC
M 9.07831 (2000.0) P Q
n 0.35195682 Peri. 107.11330 -0.77041084 -0.63689011
a 1.9867496 Node 33.34307 +0.56308907 -0.70102896
e 0.4033075 Incl. 3.01918 +0.29899470 -0.32082609
P 2.80 H 23.5 G 0....
|
Blobrana
|
0
|
|
|
|
|
Asteroid 2011 YV62
(Preview)
Orbital elements:
2011 YV62 PHA, Earth MOID = 0.0006 AU
Epoch 2012 Mar. 14.0 TT = JDT 2456000.5 MPC
M 90.12799 (2000.0) P Q
n 0.48907638 Peri. 85.54206 +0.85072505 +0.51216295
a 1.5954563 Node 243.60935 -0.51920704 +0.78388102
e 0.5813973 Incl. 7.57821 -0.08179808 +0.35102657
P 2.02 H 21...
|
Blobrana
|
0
|
|
|
|
|
Asteroid 2011 YT62
(Preview)
Orbital elements:
2011 YT62 Earth MOID = 0.0175 AU
Epoch 2012 Mar. 14.0 TT = JDT 2456000.5 MPC
M 113.77104 (2000.0) P Q
n 0.75071900 Peri. 344.25522 +0.94367331 -0.32515393
a 1.1989961 Node 34.91168 +0.31396036 +0.82146349
e 0.1940804 Incl. 6.14698 +0.10444887 +0.46847910
P 1.31 H 22.3 G...
|
Blobrana
|
0
|
|
|
|
|
Asteroid 2011 YS62
(Preview)
Orbital elements:
2011 YS62 Earth MOID = 0.0684 AU
Epoch 2012 Mar. 14.0 TT = JDT 2456000.5 MPC
M 27.25678 (2000.0) P Q
n 0.26076245 Peri. 356.75345 +0.56120876 -0.76700940
a 2.4264575 Node 58.87745 +0.76732638 +0.34129108
e 0.5651329 Incl. 21.30477 +0.31024982 +0.54333873
P 3.78 H 19.7 G...
|
Blobrana
|
0
|
|
|
|
|
Asteroid 2012 AQ
(Preview)
Orbital elements:
2012 AQ Earth MOID = 0.0017 AU
Epoch 2012 Mar. 14.0 TT = JDT 2456000.5 MPC
M 103.15454 (2000.0) P Q
n 0.88941533 Peri. 316.03755 +0.59574980 -0.80164861
a 1.0708607 Node 97.33533 +0.74996783 +0.53321424
e 0.1038673 Incl. 2.85572 +0.28745509 +0.27026299
P 1.11 H 30.7 G 0....
|
Blobrana
|
0
|
|
|
|
|
Asteroid 2011 YU62
(Preview)
Orbital elements:
2011 YU62 Earth MOID = 0.1583 AU
Epoch 2012 Mar. 14.0 TT = JDT 2456000.5 MPC
M 358.16069 (2000.0) P Q
n 0.20780181 Peri. 352.82677 -0.98405970 +0.14712952
a 2.8229499 Node 196.66745 -0.14090913 -0.98777037
e 0.7029169 Incl. 20.38314 -0.10849484 -0.05160031
P 4.74 H 17....
|
Blobrana
|
0
|
|
|
|
|
Asteroid 2011 YX62
(Preview)
Orbital elements:
2011 YX62 Earth MOID = 0.0488 AU
Epoch 2012 Mar. 14.0 TT = JDT 2456000.5 MPC
M 8.23333 (2000.0) P Q
n 0.24742704 Peri. 152.85163 -0.56998047 +0.80822454
a 2.5128773 Node 82.04503 -0.77837558 -0.47344886
e 0.9262218 Incl. 8.59265 -0.26316099 -0.35017033
P 3.98 H 23.0 G 0....
|
Blobrana
|
0
|
|
|
|
|
Asteroid 2011 YB63
(Preview)
Orbital elements:
2011 YB63 Earth MOID = 0.0017 AU
Epoch 2012 Mar. 14.0 TT = JDT 2456000.5 MPC
M 18.05600 (2000.0) P Q
n 0.35529000 Peri. 210.23295 -0.61438679 -0.78853587
a 1.9743041 Node 277.68808 +0.72928489 -0.55438731
e 0.5201279 Incl. 1.57301 +0.30111864 -0.26620647
P 2.77 H 29.8 G...
|
Blobrana
|
0
|
|
|